Simultaneous Nadir Overpasses (SNOs) Predictions

Prediction of SNOs between AQUA and GOES-15 Satellite Orbit:

Table of predicted SNOs for the next 14.0 days since TLE Epoch: 10/19/2012
Index Date Time (AQUA) AQUA Lat,Lon GOES-15 Lat,Lon Distance(km) Time Diff (sec)
1 10/19/2012 22:28:43 0.24,-133.42 -0.16,-135.31 214.98 80
2 10/20/2012 10:49:59 0.81,-138.58 0.13,-135.35 367.78 80
3 10/22/2012 10:37:47 0.21,-135.62 0.14,-135.32 34.93 80
4 10/24/2012 10:25:35 -0.40,-132.66 0.13,-135.28 297.79 80
5 10/24/2012 22:47:00 -0.66,-137.86 -0.11,-135.23 299.32 80
6 10/26/2012 22:34:48 -0.05,-134.90 -0.11,-135.19 33.18 80
7 10/28/2012 22:22:36 0.57,-131.94 -0.12,-135.15 365.35 80
8 10/29/2012 10:43:52 0.48,-137.10 0.09,-135.19 217.45 80
9 10/31/2012 10:31:40 -0.14,-134.14 0.10,-135.14 113.80 80
10 10/31/2012 22:53:04 -0.98,-139.33 -0.07,-135.08 484.07 80




NCC Satellite Simultaneous Nadir Overpasses (SNOs) Prediction Service
